Location: Lecco
(45.8566°N, 9.3977°E)
Time: 00:49:20
(UTC+02:00)

OTV 5 (USA 277) - Pass Details

Date: 20 June 2019
Orbit: 299 x 335 km, 54.5° (Epoch: 13 July)

Event Time Altitude Azimuth Distance (km) Brightness Sun altitude
Exits shadow 01:12:15 - 273° (W) 1,996 ? -20.7°
Reaches altitude 10° 01:14:15 10° 290° (WNW) 1,270 ? -20.7°
Maximum altitude 01:16:29 21° 342° (NNW) 831 ? -20.7°
Drops below altitude 10° 01:18:42 10° 35° (NE) 1,265 ? -20.7°
Enters shadow 02:29:37 -40° 269° (W) 8,662 ? -19.1°
